Skip to main content

Ωριαία Μετεωρολογικά Δεδομένα Σταθμού Δοξαρό

Ωριαία Μετεωρολογικά Δεδομένα Σταθμού Δοξαρό.

Παρέχεται η δυνατότητα πρόσβασης σε resource δεδομένα μέσω του DKAN Datastore Web API με δυνατότητα επιστροφής των αποτελεσμάτων σε XML ή JSON.

Date Time ΔΟΞΑΡΟ WIND SPEED ΔΟΞΑΡΟ Relative Humidity ΔΟΞΑΡΟ Temperature ΔΟΞΑΡΟ Barometric Pressure ΔΟΞΑΡΟ Pyranometer 0 - 2000 W/m² ΔΟΞΑΡΟ Precipitation ΔΟΞΑΡΟ WIND DIRECTION ΔΟΞΑΡΟ Hourly ETo ΔΟΞΑΡΟ Rain Duration
08/05/2026 18:30:00 * 67.0 20.5 985.2 40.4 0.0 * * 0.0
08/05/2026 18:00:00 * 64.9 21.7 985.3 97.4 0.0 * * 0.0
08/05/2026 17:30:00 * 65.1 21.4 985.6 67.7 0.0 * * 0.0
08/05/2026 17:00:00 * 53.4 22.1 985.7 172.1 0.0 * * 0.0
08/05/2026 16:30:00 * 48.1 22.3 986.3 295.8 0.0 * * 0.0
08/05/2026 16:00:00 * 58.4 21.2 987.0 358.7 0.0 * * 0.0
08/05/2026 15:30:00 * 60.8 20.5 987.2 392.8 0.0 * * 0.0
08/05/2026 15:00:00 * 38.8 24.5 986.7 361.8 0.0 * * 0.0
08/05/2026 14:30:00 * 35.5 23.7 986.6 544.3 0.0 * * 0.0
08/05/2026 14:00:00 * 49.5 22.4 987.4 387.7 0.0 * * 0.0
08/05/2026 13:30:00 * 51.2 21.6 987.4 421.9 0.0 * * 0.0
08/05/2026 13:00:00 * 39.6 22.8 987.4 439.2 0.0 * * 0.0
08/05/2026 12:30:00 * 37.6 22.9 987.1 422.6 0.0 * * 0.0
08/05/2026 12:00:00 * 55.8 22.5 987.2 457.4 0.0 * * 0.0
08/05/2026 11:30:00 * 57.3 22.9 987.2 343.4 0.0 * * 0.0
08/05/2026 11:00:00 * 69.5 20.6 987.3 298.9 0.0 * * 0.0
08/05/2026 10:30:00 * 65.0 20.5 986.6 140.2 0.0 * * 0.0
08/05/2026 10:00:00 * 56.4 21.2 986.3 291.0 0.0 * * 0.0
08/05/2026 09:30:00 * 55.2 20.0 986.0 155.8 0.0 * * 0.0
08/05/2026 09:00:00 * 62.8 20.2 985.3 397.6 0.0 * * 0.0
08/05/2026 08:30:00 * 70.6 17.3 984.8 185.6 0.0 * * 0.0
08/05/2026 08:00:00 * 78.6 15.5 984.1 114.5 0.0 * * 0.0
08/05/2026 07:30:00 * 79.7 14.5 984.7 117.1 0.0 * * 0.0
08/05/2026 07:00:00 * 80.4 13.6 985.0 52.4 0.0 * * 0.0
08/05/2026 06:30:00 * 76.8 14.2 984.5 11.7 0.0 * 0.00 0.0
08/05/2026 06:00:00 * 78.9 13.9 984.0 0.0 0.0 * * 0.0
08/05/2026 05:30:00 * 80.7 13.6 984.5 0.0 0.0 * 0.00 0.0
08/05/2026 05:00:00 * 80.4 13.9 984.9 0.0 0.0 * 0.00 0.0
08/05/2026 04:30:00 * 80.3 14.1 985.2 0.0 0.0 * 0.00 0.0
08/05/2026 04:00:00 * 80.5 14.3 985.1 0.0 0.0 * * 0.0
08/05/2026 03:30:00 * 76.4 15.0 985.3 0.0 0.0 * 0.00 0.0
08/05/2026 03:00:00 * 75.6 15.1 985.2 0.0 0.0 * * 0.0
08/05/2026 02:30:00 * 76.7 15.0 985.7 0.0 0.0 * 0.00 0.0
08/05/2026 02:00:00 * 78.6 14.9 986.3 0.0 0.0 * 0.00 0.0
08/05/2026 01:30:00 * 79.5 14.3 986.5 0.0 0.0 * 0.00 0.0
08/05/2026 01:00:00 * 76.6 14.9 986.8 0.0 0.0 * 0.00 0.0
08/05/2026 00:30:00 * 77.7 14.5 986.6 0.0 0.0 * 0.00 0.0
08/05/2026 00:00:00 * 79.5 14.1 986.7 0.0 0.0 * * 0.0
07/05/2026 23:30:00 * 77.9 14.4 986.8 0.0 0.0 * 0.00 0.0
07/05/2026 23:00:00 * 74.0 15.2 986.7 0.0 0.0 * * 0.0
07/05/2026 22:30:00 * 74.0 15.3 987.0 0.0 0.0 * 0.00 0.0
07/05/2026 22:00:00 * 74.4 15.4 986.9 0.0 0.0 * * 0.0
07/05/2026 21:30:00 * 72.1 15.6 986.4 0.0 0.0 * 0.00 0.0
07/05/2026 21:00:00 * 67.9 16.6 986.2 0.0 0.0 * * 0.0
07/05/2026 20:30:00 * 68.5 17.0 986.2 0.0 0.0 * * 0.0
07/05/2026 20:00:00 * 61.5 19.2 986.1 0.0 0.0 * * 0.0
07/05/2026 19:30:00 * 46.2 21.5 986.0 39.3 0.0 * * 0.0
07/05/2026 19:00:00 * 47.1 22.0 985.9 58.8 0.0 * * 0.0
07/05/2026 18:30:00 * 43.1 22.7 985.5 121.8 0.0 * * 0.0
07/05/2026 18:00:00 * 38.7 23.3 985.3 166.9 0.0 * * 0.0

Additonal Information

Field Value
mimetype text/csv
filesize 10.86 MB
timestamp Fri, 05/08/2026 - 19:39